www.pogodaiklimat.ru

Погода и климат >> Архив погоды >> Россия >> город Москва >> Москва


АРХИВ ПОГОДЫ в Москве

Время (UTC), дата Ветер
(напр.,м/с)
 
Видим.   Явления Облачность Т
(С)
Тd
(С)
f
(%)
Тe
(С)
Тes
(С)
Комфортность P
(гПа)
Po
(гПа)
Тmin
(С)
Tmax
(С)
R
(мм)
R24
(мм)
S
(см)
03 21.07 штиль 0 4000 м дымка 9/9 600 м
[Cu Sc]
+14.2 +12.6 90 +14 +14 прохладно 1012.9 994.2 +13.2
06 21.07 Ю 1 10 км дымка {ливн. осадки} 8/8 600 м
[Cu Sc]
+17.8 +14.2 79 +19 +21 по сезону 1013.2 994.7 +13.2 1
09 21.07 ЮЗ 1 10 км 6/6 600 м
[Cu Sc]
+21.8 +12.8 57 +24 +31 комфорт 1012.5 994.3
12 21.07 СЗ 1 10 км {гроза, ливн. осадки} 8/8 600 м
[Cu Sc]
+21.7 +10.4 49 +23 +26 комфорт 1012.2 993.9
15 21.07 СЗ 2 10 км 4/4 600 м
[Cu hum]
+21.1 +8.6 45 +22 +24 комфорт 1013.0 994.7 2
18 21.07 С 1 10 км ясно +17.7 +8.9 56 +19 +19 по сезону 1014.4 995.8 +23.0 0.6
21 21.07 штиль 0 н/о ясно +12.6 +10.5 87 +12 +12 холодно 1015.4 996.5
00 22.07 штиль 0 н/о дымка ясно +11.3 +10.4 94 +11 +11 холодно 1015.9 996.9
03 22.07 штиль 0 4000 м дымка 8/0
[Ac trans]
+12.7 +12.1 96 +12 +13 холодно 1016.0 997.1 +10.6
06 22.07 штиль 0 10 км 10/0
[Ac und]
+18.8 +10.4 58 +19 +23 по сезону 1016.1 997.6 +10.6
09 22.07 штиль 0 10 км 10/3 600 м
[Cu med, cong As op]
+18.5 +9.6 56 +19 +22 прохладно 1015.9 997.4
12 22.07 С 1 10 км 9/5 600 м
[Cu Sc Ac As]
+19.3 +9.2 52 +21 +24 комфорт 1015.3 996.8
15 22.07 ЮЗ 1 10 км 8/4 600 м
[Cu med, cong Ac cast]
+19.8 +11.6 59 +22 +23 комфорт 1014.6 996.2
18 22.07 штиль 0 10 км 3/3 1000 м
[Sc diur, vesp]
+16.2 +12.1 77 +16 +16 прохладно 1014.7 996.1 +21.9
21 22.07 штиль 0 н/о ясно +14.5 +12.0 85 +14 +14 прохладно 1014.7 995.9
00 23.07 штиль 0 н/о дымка ясно +12.2 +11.3 94 +12 +12 прохладно 1013.8 994.9
03 23.07 С 1 4000 м дымка 4/0
[Ac trans]
+13.6 +11.8 89 +14 +15 прохладно 1014.2 995.4 +11.8
06 23.07 С 1 10 км в посл. час ливневой дождь 9/9 600 м
[Cu Sc]
+15.8 +11.6 76 +17 +17 прохладно 1014.2 995.5 +11.8 0.4
09 23.07 С 3 10 км 8/8 600 м
[Cu Sc]
+20.3 +8.4 46 +22 +24 комфорт 1013.8 995.4
12 23.07 С 3 10 км 8/8 1000 м
[Cu med, cong]
+21.5 +6.6 38 +22 +24 комфорт 1013.4 995.1
15 23.07 СЗ 2 10 км 9/9 600 м
[Cu Sc]
+20.3 +7.0 42 +22 +22 комфорт 1013.5 995.1 0.4
18 23.07 10 км н/о +16.8 +9.5 62 +17 +17 прохладно 1013.9 995.3 +21.9
21 23.07 штиль 0 н/о ясно +13.8 +9.8 77 +13 +13 холодно 1014.1 995.3
00 24.07 штиль 0 н/о дымка ясно +11.4 +9.9 90 +11 +11 холодно 1014.2 995.2
03 24.07 штиль 0 10 км дымка ясно +13.0 +9.9 81 +13 +14 холодно 1013.8 994.9 +11.1
06 24.07 З 1 10 км ясно +19.8 +10.0 53 +22 +31 комфорт 1012.9 994.5 +11.1
09 24.07 СЗ 1 10 км 8/8 600 м
[Cu Sc]
+20.2 +8.6 47 +22 +26 комфорт 1012.3 993.9
12 24.07 10 км н/о +23.3 +8.2 38 +24 +30 комфорт 1011.5 993.3
15 24.07 СЗ 1 10 км 6/3 1000 м
[Cu Sc Ac trans Ci fib]
+22.7 +6.8 36 +23 +25 комфорт 1011.0 992.8
18 24.07 штиль 0 10 км 8/0
[Ci fib]
+18.1 +9.8 58 +18 +18 прохладно 1011.4 992.9 +23.8
21 24.07 штиль 0 н/о 6/0
[Ci fib]
+15.6 +11.3 76 +15 +15 прохладно 1011.4 992.8
00 25.07 штиль 0 н/о дымка 4/0
[Ci fib]
+13.5 +11.4 87 +13 +13 прохладно 1011.6 992.8
03 25.07 штиль 0 4000 м дымка 8/0
[Cc]
+14.3 +12.6 90 +14 +15 прохладно 1011.1 992.4 +12.2
06 25.07 штиль 0 10 км 3/0
[Ac trans]
+21.8 +11.7 53 +24 +33 комфорт 1010.3 992.1 +12.2
09 25.07 ЮЗ 1 10 км 5/3 600 м
[Cu hum Ci fib]
+24.9 +11.6 43 +26 +37 жарко 1009.7 991.7
12 25.07 штиль 0 10 км 10/10 600 м
[Sc]
+22.3 +12.4 53 +25 +25 комфорт 1009.9 991.8
15 25.07 В 1 10 км 10/10 600 м
[Sc]
+21.6 +13.7 61 +24 +24 комфорт 1009.7 991.5
18 25.07 штиль 0 10 км 4/0
[Cs]
+18.5 +14.3 77 +19 +19 по сезону 1009.9 991.5 +25.4
21 25.07 штиль 0 н/о дымка ясно +15.3 +13.9 91 +15 +15 прохладно 1009.9 991.3
00 26.07 штиль 0 н/о дымка ясно +14.3 +13.4 94 +14 +14 по сезону 1010.3 991.6
03 26.07 штиль 0 4000 м дымка 5/0
[Ac trans Ci fib]
+14.4 +13.7 96 +14 +15 прохладно 1009.5 990.8 +13.5
06 26.07 Ю 1 10 км 8/0
[Cs]
+23.7 +13.1 51 +26 +33 жарко 1008.5 990.5 +13.5
09 26.07 Ю 1 10 км 8/5 600 м
[Cu hum Ac cast Ci fib]
+26.8 +12.4 41 +28 +34 жарко 1008.0 990.2
12 26.07 Ю 1 10 км 9/6 1000 м
[Cu hum Ac cast]
+26.6 +11.5 39 +28 +30 жарко 1007.1 989.2
15 26.07 Ю 2 10 км 8/5 600 м
[Cu Sc Ci fib]
+26.6 +11.2 38 +28 +29 жарко 1006.4 988.5
18 26.07 ЮВ 1 10 км 3/0
[Ci fib]
+23.3 +12.3 50 +26 +26 жарко 1006.3 988.3 +27.9
21 26.07 ЮВ 1 н/о 4/3 600 м
[Sc Ci fib]
+22.2 +13.1 56 +25 +25 комфорт 1006.4 988.3
00 27.07 ЮВ 1 н/о 8/8 600 м
[Sc]
+21.3 +13.2 60 +24 +24 комфорт 1006.2 988.0
03 27.07 штиль 0 10 км в посл. час ливневой дождь 8/4 600 м
[Cb cap Ac trans]
+19.5 +15.8 79 +21 +22 комфорт 1005.7 987.4 +18.9 0.3
06 27.07 ЮВ 1 10 км {ливн. осадки} ясно +24.2 +15.7 59 +27 +36 жарко 1005.8 987.8 +18.9 0.3
09 27.07 ЮЗ 1 10 км 8/6 600 м
[Cu med, cong Ci]
+26.9 +17.1 55 +31 +37 душно 1005.9 988.1
12 27.07 З 1 10 км 8/8 600 м
[Cu med, cong]
+28.5 +15.4 45 +31 +34 душно 1005.9 988.2
15 27.07 СЗ 1 10 км 3/1 1000 м
[Cu hum Ci fib]
+26.8 +14.4 47 +29 +32 жарко 1006.8 989.0
18 27.07 СЗ 1 10 км 8/0
[Ci fib]
+22.5 +14.8 62 +26 +26 жарко 1008.5 990.4 +29.1
21 27.07 штиль 0 н/о 3/0
[Ci fib]
+18.3 +13.9 76 +19 +19 тепло 1009.8 991.4
00 28.07 штиль 0 н/о дымка ясно +15.3 +13.5 89 +15 +15 по сезону 1010.6 992.0

 

Местоположение метеостанции Москва (город Москва, Россия): широта 55.83 долгота 37.62 высота над уровнем моря 156 м.

В архиве по умолчанию представлена погода в Москве за последнюю неделю. Архивные данные за месяц целиком и за предыдущие месяцы, начиная с января 2011 года, Вы можете получить, выбрав интересующий диапазон дат из раскрывающегося списка и нажав кнопку "Ввод!".

Внимание! Время в таблицах - всемирное. Для получения местного времени необходимо прибавить поправку, которая в Москве равна 3 ч.

Смотрите также архив погоды в соседних городах и на ближайших метеорологических станциях:

Погода в Москве (Балчуг) (город Москва, Россия) (9 км)
Погода в Москве (Тушино) (город Москва, Россия) (12 км)
Погода в Москве (Строгино) (город Москва, Россия) (14 км)
Погода в Шереметьево (Московская область, Россия) (20 км)
Погода в Немчиновке (город Москва, Россия) (21 км)
Погода в Подмосковной (Московская область, Россия) (29 км)
Погода в Внуково (Московская область, Россия) (33 км)
Погода в Михайловском (Московская область, Россия) (49 км)
Погода в Ново-Йерусалиме (Московская область, Россия) (51 км)
Погода в Домодедово (Московская область, Россия) (51 км)

Пояснения к столбцам:

Ветер - указаны скорость ветра в м/с - средняя за 10 мин, порывы в срок и между сроками (в фигурных скобках) и направление, откуда дует ветер: С - северный, СВ - северо-восточный, В - восточный, ЮВ - юго-восточный, Ю - южный, ЮЗ - юго-западный, З - западный, СЗ - северо-западный.
Видимость - горизонтальная дальность видимости в метрах или километрах. При видимости от 1 до 10 км при отсутствии осадков обычно наблюдается дымка, при ухудшении видимости до 1 км и менее - туман. В сухую погоду видимость может ухудшаться дымом, пылью или мглою.
Явления - указаны атмосферные явления, наблюдавшиеся в срок или в последний час перед сроком; фигурными скобками обозначены явления, наблюдавшиеся между сроками (за 1-3 часа до срока); квадратными скобками обозначены град или гололедные отложения с указанием их диаметра в мм.
Облачность - указаны через наклонную черту общая и нижняя облачность в баллах и высота нижней границы облаков в метрах; квадратными скобками обозначены формы облаков: Ci - перистые, Cs - перисто-слоистые, Cc - перисто-кучевые, Ac - высококучевые, As - высокослоистые, Sc - слоисто-кучевые, Ns - слоисто-дождевые, Cu - кучевые, Cb - кучево-дождевые. Подробнее классификацию облаков см. в Атласе облаков (PDF).
T - Температура воздуха - температура, измеренная на высоте 2 м над землей.
Td - Температура точки росы - температура, при понижении до которой содержащийся в воздухе водяной пар достигнет насыщения.
f - Относительная влажность воздуха - влажноcть воздуха, измеренная на высоте 2 м над землей.
Te - Эффективная температура - температура, которую ощущает одетый по сезону человек в тени. Характеристика душности погоды. При расчете учитывается влияние влажности воздуха и скорости ветра на теплоощущения человека.
Tes - Эффективная температура на солнце - температура, которую ощущает человек, с поправкой на солнечный нагрев. Характеристика знойности погоды. Зависит от высоты солнца над горизонтом, облачности и скорости ветра. Ночью, в пасмурную погоду, а также при ветре 12 м/с и более поправка равна нулю.
P - Атмосферное давление - приведенное к уровню моря атмосферное давление.
Po - Атмосферное давление - измеренное на уровне метеостанции атмосферное давление.
Tmin - Минимальная температура - минимум температуры воздуха на высоте 2 м над землей.
Tmax - Максимальная температура - максимум температуры воздуха на высоте 2 м над землей.
R - Количество осадков - Количество выпавших осадков за период времени, мм. При наведении курсора мыши на число - период времени, за который выпало указанное количество осадков.
R24 - Количество осадков - Количество выпавших осадков за 24 часа, мм.
S - Снежный покров - Высота снежного покрова, см. При наведении курсора мыши на число - состояние снежного покрова и степень покрытия местности в баллах.